Time,TemperatureF,DewpointF,PressureIn,WindDirection,WindDirectionDegrees,WindSpeedMPH,WindSpeedGustMPH,Humidity,HourlyPrecipIn,Conditions,Clouds,dailyrainin,SoftwareType,DateUTC
2013-01-31 09:22:00,50.8,-99.9,30.15,North,-999,-999.0,-999.0,-999,-99.99,,,-99.99,,2013-01-31 17:22:00,
2013-01-31 09:31:00,50.6,-99.9,30.14,North,-999,-999.0,-999.0,-999,-99.99,,,-99.99,,2013-01-31 17:31:00,
2013-01-31 09:43:00,51.4,-99.9,30.14,North,-999,-999.0,-999.0,-999,-99.99,,,-99.99,,2013-01-31 17:43:00,
2013-01-31 09:45:00,52.6,42.1,30.15,North,-999,-999.0,-999.0,-999,-99.99,,,-99.99,,2013-01-31 17:45:00,
2013-01-31 09:54:00,53.9,42.5,30.15,North,-999,-999.0,-999.0,-999,-99.99,,,-99.99,,2013-01-31 17:54:00,
2013-01-31 10:03:00,56.9,44.2,30.15,North,-999,-999.0,-999.0,63,-99.99,,,-99.99,,2013-01-31 18:03:00,
2013-01-31 10:28:00,54.8,40.0,30.14,NNW,335,3.4,-999.0,57,-99.99,,,-99.99,,2013-01-31 18:28:00,
2013-01-31 11:30:00,56.5,40.6,30.12,NW,312,7.4,-999.0,55,-99.99,,,-99.99,,2013-01-31 19:30:00,
2013-01-31 11:35:00,55.5,39.6,30.12,NW,317,7.1,-999.0,55,-99.99,,,-99.99,,2013-01-31 19:35:00,
2013-01-31 11:45:00,54.9,38.3,30.11,NNE,32,3.7,-999.0,53,-99.99,,,-99.99,,2013-01-31 19:45:00,
2013-01-31 11:50:00,56.0,39.9,30.12,North,3,3.5,-999.0,55,-99.99,,,-99.99,,2013-01-31 19:50:00,
2013-01-31 11:55:00,56.5,39.9,30.11,North,8,2.5,-999.0,54,-99.99,,,-99.99,,2013-01-31 19:55:00,
2013-01-31 12:00:00,57.7,40.0,30.12,North,1,2.0,-999.0,51,-99.99,,,-99.99,,2013-01-31 20:00:00,
2013-01-31 12:05:00,56.9,38.5,30.11,NNW,331,4.7,-999.0,50,-99.99,,,-99.99,,2013-01-31 20:05:00,
2013-01-31 12:10:00,57.3,38.8,30.11,NNE,25,2.2,-999.0,50,-99.99,,,-99.99,,2013-01-31 20:10:00,
2013-01-31 12:15:00,60.6,41.0,30.11,NW,309,0.0,-999.0,48,-99.99,,,-99.99,,2013-01-31 20:15:00,
2013-01-31 12:20:00,58.0,38.1,30.10,NNW,340,3.7,-999.0,47,-99.99,,,-99.99,,2013-01-31 20:20:00,
2013-01-31 12:25:00,56.8,37.0,30.10,NNW,330,4.4,-999.0,47,-99.99,,,-99.99,,2013-01-31 20:25:00,
2013-01-31 12:30:00,60.6,39.6,30.10,WSW,255,0.0,-999.0,46,-99.99,,,-99.99,,2013-01-31 20:30:00,
2013-01-31 12:35:00,57.8,38.1,30.09,WNW,290,2.2,-999.0,48,-99.99,,,-99.99,,2013-01-31 20:35:00,
2013-01-31 12:40:00,58.9,38.6,30.09,NNW,332,4.0,-999.0,47,-99.99,,,-99.99,,2013-01-31 20:40:00,
2013-01-31 12:45:00,58.5,37.4,30.09,North,350,3.2,-999.0,45,-99.99,,,-99.99,,2013-01-31 20:45:00,
2013-01-31 12:50:00,61.2,40.6,30.09,NNE,15,5.2,-999.0,47,-99.99,,,-99.99,,2013-01-31 20:50:00,
2013-01-31 12:55:00,58.9,37.3,30.09,North,351,5.9,-999.0,44,-99.99,,,-99.99,,2013-01-31 20:55:00,
2013-01-31 13:00:00,59.1,38.5,30.09,NNW,334,4.2,-999.0,46,-99.99,,,-99.99,,2013-01-31 21:00:00,
2013-01-31 13:05:00,58.0,36.8,30.09,NW,323,5.2,-999.0,45,-99.99,,,-99.99,,2013-01-31 21:05:00,
2013-01-31 13:10:00,57.7,37.0,30.07,NW,311,7.3,-999.0,46,-99.99,,,-99.99,,2013-01-31 21:10:00,
2013-01-31 13:15:00,57.5,36.3,30.08,WNW,292,3.4,-999.0,45,-99.99,,,-99.99,,2013-01-31 21:15:00,
2013-01-31 13:20:00,58.8,36.9,30.08,NW,322,5.4,-999.0,44,-99.99,,,-99.99,,2013-01-31 21:20:00,
2013-01-31 13:25:00,59.5,37.7,30.07,North,10,3.2,-999.0,44,-99.99,,,-99.99,,2013-01-31 21:25:00,
2013-01-31 13:30:00,60.3,38.6,30.07,NNW,332,3.9,-999.0,44,-99.99,,,-99.99,,2013-01-31 21:30:00,
2013-01-31 13:35:00,61.7,39.2,30.07,NNW,343,0.0,-999.0,43,-99.99,,,-99.99,,2013-01-31 21:35:00,
2013-01-31 13:40:00,58.3,35.6,30.07,NNW,334,4.4,-999.0,42,-99.99,,,-99.99,,2013-01-31 21:40:00,
2013-01-31 13:45:00,58.6,36.2,30.06,NW,313,5.1,-999.0,43,-99.99,,,-99.99,,2013-01-31 21:45:00,
2013-01-31 13:50:00,61.1,37.9,30.06,NNW,331,5.2,-999.0,42,-99.99,,,-99.99,,2013-01-31 21:50:00,
2013-01-31 13:55:00,61.0,37.6,30.06,North,0,0.0,-999.0,42,-99.99,,,-99.99,,2013-01-31 21:55:00,
2013-01-31 14:00:00,58.5,35.5,30.06,NNW,338,6.3,-999.0,42,-99.99,,,-99.99,,2013-01-31 22:00:00,
2013-01-31 14:05:00,60.1,37.4,30.05,WNW,293,6.4,-999.0,43,-99.99,,,-99.99,,2013-01-31 22:05:00,
2013-01-31 14:10:00,61.3,37.7,30.05,NNW,333,1.6,-999.0,41,-99.99,,,-99.99,,2013-01-31 22:10:00,
2013-01-31 14:15:00,61.2,38.2,30.05,NNE,20,6.3,-999.0,43,-99.99,,,-99.99,,2013-01-31 22:15:00,
2013-01-31 14:20:00,62.1,38.8,30.05,North,11,3.4,-999.0,42,-99.99,,,-99.99,,2013-01-31 22:20:00,
2013-01-31 14:25:00,59.8,36.4,30.05,NNW,347,6.8,-999.0,42,-99.99,,,-99.99,,2013-01-31 22:25:00,
2013-01-31 14:30:00,61.2,38.0,30.05,NW,305,3.2,-999.0,42,-99.99,,,-99.99,,2013-01-31 22:30:00,
2013-01-31 14:35:00,60.2,36.2,30.05,NNW,335,5.2,-999.0,40,-99.99,,,-99.99,,2013-01-31 22:35:00,
2013-01-31 14:40:00,60.8,36.8,30.05,West,261,3.4,-999.0,41,-99.99,,,-99.99,,2013-01-31 22:40:00,
2013-01-31 14:45:00,61.7,37.8,30.04,WNW,293,3.9,-999.0,41,-99.99,,,-99.99,,2013-01-31 22:45:00,
2013-01-31 14:50:00,61.1,36.5,30.05,NW,305,7.1,-999.0,40,-99.99,,,-99.99,,2013-01-31 22:50:00,
2013-01-31 14:55:00,61.3,37.7,30.04,NNW,348,5.6,-999.0,41,-99.99,,,-99.99,,2013-01-31 22:55:00,
2013-01-31 15:00:00,60.6,36.1,30.04,West,281,5.6,-999.0,40,-99.99,,,-99.99,,2013-01-31 23:00:00,
2013-01-31 15:05:00,59.8,35.7,30.04,WNW,293,4.9,-999.0,40,-99.99,,,-99.99,,2013-01-31 23:05:00,
2013-01-31 15:10:00,61.8,37.5,30.05,NNW,334,6.9,-999.0,40,-99.99,,,-99.99,,2013-01-31 23:10:00,
2013-01-31 15:15:00,60.9,37.7,30.05,North,5,5.9,-999.0,42,-99.99,,,-99.99,,2013-01-31 23:15:00,
2013-01-31 15:20:00,61.3,38.6,30.04,North,351,5.6,-999.0,43,-99.99,,,-99.99,,2013-01-31 23:20:00,
2013-01-31 15:25:00,59.9,37.1,30.05,NNW,335,5.9,-999.0,42,-99.99,,,-99.99,,2013-01-31 23:25:00,
2013-01-31 15:30:00,62.4,40.2,30.05,South,184,1.1,-999.0,44,-99.99,,,-99.99,,2013-01-31 23:30:00,
2013-01-31 15:35:00,59.3,39.4,30.05,SSW,209,6.4,-999.0,48,-99.99,,,-99.99,,2013-01-31 23:35:00,
2013-01-31 15:40:00,58.0,39.1,30.05,South,181,5.9,-999.0,49,-99.99,,,-99.99,,2013-01-31 23:40:00,
2013-01-31 15:45:00,58.8,39.0,30.05,WSW,241,5.9,-999.0,48,-99.99,,,-99.99,,2013-01-31 23:45:00,
2013-01-31 15:50:00,59.5,40.0,30.04,SW,233,3.9,-999.0,48,-99.99,,,-99.99,,2013-01-31 23:50:00,
2013-01-31 15:55:00,59.8,40.6,30.04,SW,216,5.2,-999.0,49,-99.99,,,-99.99,,2013-01-31 23:55:00,
2013-01-31 16:00:00,59.4,39.8,30.05,SSW,209,2.8,-999.0,48,-99.99,,,-99.99,,2013-02-01 00:00:00,
2013-01-31 16:05:00,59.1,39.8,30.05,SSW,199,3.2,-999.0,49,-99.99,,,-99.99,,2013-02-01 00:05:00,
2013-01-31 16:10:00,59.5,39.8,30.04,West,277,1.1,-999.0,48,-99.99,,,-99.99,,2013-02-01 00:10:00,
2013-01-31 16:15:00,59.5,39.2,30.04,WSW,255,2.5,-999.0,47,-99.99,,,-99.99,,2013-02-01 00:15:00,
2013-01-31 16:20:00,60.0,39.5,30.04,SW,234,0.0,-999.0,46,-99.99,,,-99.99,,2013-02-01 00:20:00,
2013-01-31 16:25:00,58.5,38.3,30.04,SSW,204,3.0,-999.0,47,-99.99,,,-99.99,,2013-02-01 00:25:00,
2013-01-31 16:30:00,58.9,39.4,30.04,SW,223,3.2,-999.0,48,-99.99,,,-99.99,,2013-02-01 00:30:00,
2013-01-31 16:35:00,58.6,39.5,30.04,SW,220,4.5,-999.0,49,-99.99,,,-99.99,,2013-02-01 00:35:00,
2013-01-31 16:40:00,58.4,39.7,30.04,SSW,212,3.9,-999.0,50,-99.99,,,-99.99,,2013-02-01 00:40:00,
2013-01-31 16:45:00,59.3,40.5,30.04,SW,217,0.0,-999.0,50,-99.99,,,-99.99,,2013-02-01 00:45:00,
2013-01-31 16:50:00,59.6,40.3,30.04,West,275,2.5,-999.0,49,-99.99,,,-99.99,,2013-02-01 00:50:00,
2013-01-31 16:55:00,58.7,40.0,30.04,SW,221,1.0,-999.0,50,-99.99,,,-99.99,,2013-02-01 00:55:00,
2013-01-31 17:00:00,58.2,41.2,30.03,SW,226,0.0,-999.0,53,-99.99,,,-99.99,,2013-02-01 01:00:00,
2013-01-31 17:05:00,58.7,41.1,30.03,WSW,239,1.6,-999.0,52,-99.99,,,-99.99,,2013-02-01 01:05:00,
2013-01-31 17:10:00,57.5,41.4,30.04,SW,221,3.0,-999.0,55,-99.99,,,-99.99,,2013-02-01 01:10:00,
2013-01-31 17:15:00,56.7,41.4,30.03,SW,215,4.0,-999.0,56,-99.99,,,-99.99,,2013-02-01 01:15:00,
2013-01-31 17:20:00,56.4,41.6,30.03,SW,230,4.5,-999.0,57,-99.99,,,-99.99,,2013-02-01 01:20:00,
2013-01-31 17:25:00,56.4,41.9,30.03,SW,228,0.0,-999.0,58,-99.99,,,-99.99,,2013-02-01 01:25:00,
2013-01-31 17:30:00,55.8,41.5,30.03,SW,224,2.7,-999.0,59,-99.99,,,-99.99,,2013-02-01 01:30:00,
2013-01-31 17:35:00,55.7,42.2,30.03,SSW,208,4.0,-999.0,60,-99.99,,,-99.99,,2013-02-01 01:35:00,
2013-01-31 17:40:00,55.7,42.7,30.03,SSW,213,3.0,-999.0,62,-99.99,,,-99.99,,2013-02-01 01:40:00,
2013-01-31 17:45:00,55.4,42.9,30.03,SW,222,0.0,-999.0,63,-99.99,,,-99.99,,2013-02-01 01:45:00,
2013-01-31 17:50:00,55.3,43.2,30.03,SW,233,0.0,-999.0,64,-99.99,,,-99.99,,2013-02-01 01:50:00,
2013-01-31 17:55:00,54.9,43.2,30.04,SW,227,0.0,-999.0,65,-99.99,,,-99.99,,2013-02-01 01:55:00,
2013-01-31 18:00:00,54.9,43.3,30.04,WSW,247,0.0,-999.0,65,-99.99,,,-99.99,,2013-02-01 02:00:00,
2013-01-31 18:05:00,55.9,44.6,30.03,WNW,303,0.0,-999.0,66,-99.99,,,-99.99,,2013-02-01 02:05:00,
2013-01-31 18:10:00,56.3,44.9,30.04,WNW,289,0.0,-999.0,65,-99.99,,,-99.99,,2013-02-01 02:10:00,
2013-01-31 18:15:00,57.1,43.6,30.04,West,270,0.0,-999.0,61,-99.99,,,-99.99,,2013-02-01 02:15:00,
2013-01-31 18:20:00,57.0,43.1,30.03,NW,311,3.9,-999.0,60,-99.99,,,-99.99,,2013-02-01 02:20:00,
2013-01-31 18:25:00,56.8,42.9,30.04,NW,306,0.0,-999.0,60,-99.99,,,-99.99,,2013-02-01 02:25:00,
2013-01-31 18:30:00,56.9,43.1,30.05,NW,304,1.8,-999.0,60,-99.99,,,-99.99,,2013-02-01 02:30:00,
2013-01-31 18:35:00,57.0,42.8,30.04,NW,306,3.4,-999.0,59,-99.99,,,-99.99,,2013-02-01 02:35:00,
2013-01-31 18:40:00,56.8,42.6,30.03,WNW,285,3.9,-999.0,59,-99.99,,,-99.99,,2013-02-01 02:40:00,
2013-01-31 18:45:00,56.4,42.5,30.04,WNW,284,2.8,-999.0,59,-99.99,,,-99.99,,2013-02-01 02:45:00,
2013-01-31 18:50:00,56.5,42.7,30.04,WNW,284,1.3,-999.0,60,-99.99,,,-99.99,,2013-02-01 02:50:00,
2013-01-31 18:55:00,56.4,42.6,30.04,WNW,286,4.7,-999.0,60,-99.99,,,-99.99,,2013-02-01 02:55:00,
2013-01-31 19:00:00,56.3,42.5,30.04,WNW,296,2.8,-999.0,60,-99.99,,,-99.99,,2013-02-01 03:00:00,
2013-01-31 19:05:00,56.3,42.8,30.04,NNW,345,4.9,-999.0,61,-99.99,,,-99.99,,2013-02-01 03:05:00,
2013-01-31 19:10:00,56.1,42.7,30.04,WNW,303,1.6,-999.0,61,-99.99,,,-99.99,,2013-02-01 03:10:00,
2013-01-31 19:15:00,56.0,42.9,30.04,NNW,334,2.7,-999.0,61,-99.99,,,-99.99,,2013-02-01 03:15:00,
2013-01-31 19:20:00,55.9,43.1,30.04,NW,317,3.5,-999.0,62,-99.99,,,-99.99,,2013-02-01 03:20:00,
2013-01-31 19:25:00,55.9,43.2,30.04,NNW,333,4.9,-999.0,62,-99.99,,,-99.99,,2013-02-01 03:25:00,
2013-01-31 19:30:00,55.8,43.3,30.04,NW,322,3.5,-999.0,63,-99.99,,,-99.99,,2013-02-01 03:30:00,
2013-01-31 19:35:00,55.5,43.1,30.04,North,351,1.1,-999.0,63,-99.99,,,-99.99,,2013-02-01 03:35:00,
2013-01-31 19:40:00,55.5,43.3,30.04,NW,317,0.0,-999.0,63,-99.99,,,-99.99,,2013-02-01 03:40:00,
2013-01-31 19:45:00,55.4,43.4,30.04,NNW,327,1.1,-999.0,64,-99.99,,,-99.99,,2013-02-01 03:45:00,
2013-01-31 19:50:00,55.3,43.6,30.04,NW,305,0.0,-999.0,65,-99.99,,,-99.99,,2013-02-01 03:50:00,
2013-01-31 19:55:00,54.9,43.5,30.04,NW,314,0.0,-999.0,65,-99.99,,,-99.99,,2013-02-01 03:55:00,
2013-01-31 20:00:00,54.9,43.8,30.05,NW,315,0.0,-999.0,66,-99.99,,,-99.99,,2013-02-01 04:00:00,
2013-01-31 20:05:00,54.8,44.2,30.04,NW,315,0.0,-999.0,67,-99.99,,,-99.99,,2013-02-01 04:05:00,
2013-01-31 20:10:00,55.2,44.7,30.05,NW,319,3.7,-999.0,68,-99.99,,,-99.99,,2013-02-01 04:10:00,
2013-01-31 20:15:00,55.0,44.3,30.04,NW,319,2.2,-999.0,67,-99.99,,,-99.99,,2013-02-01 04:15:00,
2013-01-31 20:20:00,54.5,44.0,30.05,NW,317,2.8,-999.0,67,-99.99,,,-99.99,,2013-02-01 04:20:00,
2013-01-31 20:25:00,54.8,44.2,30.05,NNW,340,4.7,-999.0,67,-99.99,,,-99.99,,2013-02-01 04:25:00,
2013-01-31 20:30:00,54.8,43.9,30.04,NNW,332,3.5,-999.0,67,-99.99,,,-99.99,,2013-02-01 04:30:00,
2013-01-31 20:35:00,54.9,43.8,30.04,NNW,331,4.2,-999.0,66,-99.99,,,-99.99,,2013-02-01 04:35:00,
2013-01-31 20:40:00,54.6,43.5,30.05,North,351,3.7,-999.0,66,-99.99,,,-99.99,,2013-02-01 04:40:00,
2013-01-31 20:45:00,54.8,43.5,30.03,NNW,343,5.4,-999.0,66,-99.99,,,-99.99,,2013-02-01 04:45:00,
2013-01-31 20:50:00,54.7,43.5,30.06,NW,326,4.5,-999.0,66,-99.99,,,-99.99,,2013-02-01 04:50:00,
2013-01-31 20:55:00,54.5,43.5,30.04,NW,304,4.2,-999.0,66,-99.99,,,-99.99,,2013-02-01 04:55:00,
2013-01-31 21:00:00,54.4,43.5,30.04,NNW,344,4.2,-999.0,67,-99.99,,,-99.99,,2013-02-01 05:00:00,
2013-01-31 21:05:00,54.3,43.6,30.04,North,350,5.2,-999.0,67,-99.99,,,-99.99,,2013-02-01 05:05:00,
2013-01-31 21:10:00,54.1,43.7,30.04,NNW,336,4.2,-999.0,68,-99.99,,,-99.99,,2013-02-01 05:10:00,
2013-01-31 21:15:00,54.0,43.7,30.05,NNW,333,4.9,-999.0,68,-99.99,,,-99.99,,2013-02-01 05:15:00,
2013-01-31 21:20:00,54.0,43.8,30.04,NNW,328,4.9,-999.0,68,-99.99,,,-99.99,,2013-02-01 05:20:00,
2013-01-31 21:25:00,53.9,43.9,30.04,NW,313,1.6,-999.0,69,-99.99,,,-99.99,,2013-02-01 05:25:00,
2013-01-31 21:30:00,54.0,44.0,30.05,NNW,334,5.2,-999.0,69,-99.99,,,-99.99,,2013-02-01 05:30:00,
2013-01-31 21:35:00,53.8,43.9,30.03,NNW,336,4.4,-999.0,69,-99.99,,,-99.99,,2013-02-01 05:35:00,
2013-01-31 21:40:00,53.7,44.0,30.04,NNW,328,2.2,-999.0,70,-99.99,,,-99.99,,2013-02-01 05:40:00,
2013-01-31 21:45:00,53.7,44.1,30.04,NNW,331,3.9,-999.0,70,-99.99,,,-99.99,,2013-02-01 05:45:00,
2013-01-31 21:50:00,53.8,44.3,30.05,NNW,338,4.5,-999.0,70,-99.99,,,-99.99,,2013-02-01 05:50:00,
2013-01-31 21:55:00,53.5,44.2,30.04,North,350,4.7,-999.0,70,-99.99,,,-99.99,,2013-02-01 05:55:00,
2013-01-31 22:00:00,53.4,44.3,30.04,NNW,348,3.9,-999.0,71,-99.99,,,-99.99,,2013-02-01 06:00:00,
2013-01-31 22:05:00,53.1,44.3,30.04,NNW,333,3.7,-999.0,72,-99.99,,,-99.99,,2013-02-01 06:05:00,
2013-01-31 22:10:00,53.3,44.6,30.06,NNW,338,4.2,-999.0,72,-99.99,,,-99.99,,2013-02-01 06:10:00,
2013-01-31 22:15:00,53.2,44.7,30.04,NNW,329,5.1,-999.0,73,-99.99,,,-99.99,,2013-02-01 06:15:00,
2013-01-31 22:20:00,52.8,44.3,30.03,North,0,2.5,-999.0,73,-99.99,,,-99.99,,2013-02-01 06:20:00,
2013-01-31 22:25:00,53.0,44.5,30.04,NNW,339,2.7,-999.0,73,-99.99,,,-99.99,,2013-02-01 06:25:00,
2013-01-31 22:30:00,53.3,45.0,30.04,NW,319,3.2,-999.0,73,-99.99,,,-99.99,,2013-02-01 06:30:00,
2013-01-31 22:35:00,53.0,44.7,30.04,NNW,344,2.0,-999.0,73,-99.99,,,-99.99,,2013-02-01 06:35:00,
2013-01-31 22:40:00,53.0,44.8,30.03,NNE,16,3.7,-999.0,73,-99.99,,,-99.99,,2013-02-01 06:40:00,
2013-01-31 22:45:00,53.0,44.8,30.04,NW,325,0.0,-999.0,74,-99.99,,,-99.99,,2013-02-01 06:45:00,
2013-01-31 22:50:00,52.8,45.3,30.04,WNW,301,2.2,-999.0,76,-99.99,,,-99.99,,2013-02-01 06:50:00,
2013-01-31 22:55:00,52.1,44.4,30.04,NNW,339,0.0,-999.0,75,-99.99,,,-99.99,,2013-02-01 06:55:00,
2013-01-31 23:00:00,52.9,45.2,30.05,NNW,344,4.4,-999.0,75,-99.99,,,-99.99,,2013-02-01 07:00:00,
2013-01-31 23:05:00,52.8,45.0,30.04,NNW,340,3.2,-999.0,75,-99.99,,,-99.99,,2013-02-01 07:05:00,
2013-01-31 23:10:00,52.8,45.0,30.04,NNW,340,2.8,-999.0,75,-99.99,,,-99.99,,2013-02-01 07:10:00,
2013-01-31 23:15:00,52.7,44.8,30.04,NW,324,5.1,-999.0,75,-99.99,,,-99.99,,2013-02-01 07:15:00,
2013-01-31 23:20:00,52.4,44.6,30.04,NNW,330,5.6,-999.0,75,-99.99,,,-99.99,,2013-02-01 07:20:00,
2013-01-31 23:25:00,52.2,44.7,30.04,NW,324,5.6,-999.0,76,-99.99,,,-99.99,,2013-02-01 07:25:00,
2013-01-31 23:30:00,52.1,44.9,30.03,NNW,334,5.1,-999.0,76,-99.99,,,-99.99,,2013-02-01 07:30:00,
2013-01-31 23:35:00,52.0,44.9,30.04,NW,326,3.7,-999.0,77,-99.99,,,-99.99,,2013-02-01 07:35:00,
2013-01-31 23:40:00,52.0,45.1,30.06,NW,324,7.3,-999.0,77,-99.99,,,-99.99,,2013-02-01 07:40:00,
2013-01-31 23:45:00,51.9,45.2,30.04,NNW,340,4.5,-999.0,78,-99.99,,,-99.99,,2013-02-01 07:45:00,
2013-01-31 23:50:00,51.7,45.0,30.04,NNW,341,5.1,-999.0,78,-99.99,,,-99.99,,2013-02-01 07:50:00,
2013-01-31 23:55:00,51.6,45.1,30.04,NNW,335,3.2,-999.0,78,-99.99,,,-99.99,,2013-02-01 07:55:00,